COSMOS 2491 DEB, 47110

Orbit data source: Space-Track

COSMOS 2491 DEB, 47110 is space debris in LEO originally from a launch on Wed, 25 Dec 2013 UTC launched from the Plesetsk Missile And Space Complex (PKMTR). Debris objects in space refer to the collection of defunct objects orbiting the Earth. Examples of debris include non-operational satellites, rocket bodies, and fragments generated from explosions, collisions, or faulty payload assembly.

Loading next visibility...
COSMOS 2491 DEB details
Identifier
47110, 2013-076AF
Orbit
LEO
Last TLE update2 days ago
Origin
Flag of CISTsNIIKhM (CIS)
ManufacturerTsNIIKhM
MissionSpacecraft
Bus & MotorUnknown
MassUnknown
Launch date (UTC)
2013-12-25 (11 years ago)
Launch vehicleUnknown
Launch site
Plesetsk Missile And Space Complex (PKMTR)
Object type
Payload
Rocket body
Debris
Shape & HBRUnknown
Radar Cross SectionSmall (<0.1 m²)

Expand to show TLE details & history

TLE from 2 days ago
0 COSMOS 2491 DEB
1 47110U 13076AF  25022.52157572  .00003391  00000-0  20101-1 0  9996
2 47110  82.4464 103.3892 0088834 240.6842 118.5348 12.56565292227404
Epoch: 2025-01-22T12:31Z
Definitive object data (Epoch: 2025-01-22T12:31:04.142Z)
Latitude-0°
Longitude153.50969°
Altitude1,473.515 km
Speed7.111 km/s
True Right ascension06h 53m 33s
True Declination0° 00' 00"
Sunlit
Object was in full shadow at TLE epoch
Visualization TLE readout
Latitude-76.27307°
Longitude119.49551°
Altitude1,415.628 km
Speed7.175 km/s
Apparent Right ascension03h 28m 50s
Apparent Declination-60° 15' 23"
Sunlit
Object is in daylight
Visualization observer readout
Local Sidereal Time15:03:11
Azimuth189.007° SSW
Elevation-69.271°
Doppler factor1
Orbital elements
Apogee altitude1,503.89 km
Perigee altitude1,365.085 km
Semi-major axis7,812.624 km
Eccentricity0.0088834
Inclination82.4464°
RAAN103.3892°
Arg. of periapsis240.6842°
True anomaly119.42435°
Mean anomaly118.5348°
Eccentric anomaly118.98005°
Mean motion3.14302 °/min
BSTAR0.020101
Orbital period114.54 mins
Loading maneuver chart data...
Loading historical data...
Loading historical data...
Loading historical data...
Loading historical data...
Loading historical data...
Loading historical data...
Loading historical data...

COSMOS 2491 DEB Visibility forecast

Observer location: undefined°, undefined

Span
Click to sort rows by Start time (UTC) header in descending order
Start Az.
Max El. time (UTC)
Max El. Az.
Max El.
End time (UTC)
End Az.
7 mins2025-01-24 14:51:07.600Z34.75° NE2025-01-24 14:54:07.600Z56.701° ENE14.016°2025-01-24 14:58:07.600Z86.332° E
15 mins2025-01-24 16:44:07.600Z356.147° N2025-01-24 16:52:07.600Z109.34° ESE43.839°2025-01-24 16:59:07.600Z166.075° S
9 mins2025-01-24 18:42:07.600Z314.202° NW2025-01-24 18:46:07.600Z281.07° WNW19.93°2025-01-24 18:51:07.600Z240.803° WSW
6 mins2025-01-25 03:46:07.600Z90.955° ESE2025-01-25 03:48:07.600Z76.247° E13.957°2025-01-25 03:52:07.600Z48.221° ENE
15 mins2025-01-25 05:35:07.600Z178.35° S2025-01-25 05:42:07.600Z104.882° ESE44.461°2025-01-25 05:50:07.600Z10.681° NNE
11 mins2025-01-25 07:34:07.600Z256.904° W2025-01-25 07:39:07.600Z298.114° NW20.808°2025-01-25 07:45:07.600Z342.405° N
|